Temperature
25 24 23 25 30 30 28 28 28 27 27 26 25 25 25 25 24 22 20 19 18 18 18 18 18 18 18 18 18 18 18 18 18 18 18 18 18 18 18 18 18 18 18 18 18 18 18 18 18
24 24 25 29 31 29 28 28 28 27 26 25 25 25 25 23 21 20 19 18 18 18 18 17 18 18 18 18 18 18 18 18 18 18 18 18 18 18 18 18 18 18 18 18 18 18 18 17 17
24 25 29 32 30 29 28 28 27 27 26 26 25 25 24 22 21 20 19 19 19 18 18 18 18 18 18 18 18 18 18 18 18 18 18 18 18 18 18 18 18 18 18 18 18 18 18 17 17
25 28 31 32 30 29 29 28 28 27 26 26 26 25 22 21 21 20 19 19 19 18 18 17 18 18 18 18 18 18 18 18 18 18 18 18 18 18 18 18 18 18 18 18 17 18 17 17 17
27 31 32 31 30 29 29 28 28 28 27 26 26 25 22 20 20 19 19 19 19 19 18 17 18 18 18 18 18 18 18 18 18 18 18 18 18 18 18 18 17 17 17 18 18 17 17 17 17
31 33 32 30 29 29 29 28 28 28 26 26 26 25 22 20 20 19 19 19 19 19 18 17 18 18 18 18 18 18 18 18 18 18 18 18 18 17 17 17 17 17 17 17 17 17 17 17 17
32 33 32 31 30 29 29 28 28 28 27 26 26 25 22 20 20 19 19 19 19 19 18 18 18 18 18 18 18 18 18 18 18 18 18 18 18 18 17 17 17 17 17 17 17 17 17 17 17
31 34 32 32 31 30 29 28 28 28 27 25 25 26 23 20 19 19 19 18 18 18 19 18 18 18 17 18 18 18 18 18 18 18 18 18 18 18 17 17 17 17 17 17 17 17 17 17 17
31 33 32 32 31 30 29 29 27 27 26 25 25 25 23 20 20 19 19 19 18 18 18 18 18 18 18 18 17 18 18 18 18 18 18 17 17 17 17 17 17 17 17 17 17 17 17 17 17
33 33 32 32 32 31 30 29 28 28 27 26 24 23 21 20 20 20 20 20 19 18 18 18 18 18 18 18 17 17 17 17 17 17 17 17 17 17 17 17 17 17 17 17 17 17 17 17 17
33 33 32 32 31 31 30 29 29 29 28 27 25 23 22 21 21 21 21 21 20 19 18 18 18 18 18 18 18 17 17 17 17 17 17 17 17 17 17 17 17 17 17 17 17 17 17 17 17
33 33 32 32 31 31 30 30 29 29 28 27 25 24 22 22 22 22 21 21 20 19 18 18 18 18 18 18 18 17 17 17 17 17 17 17 17 17 17 17 17 17 17 17 17 17 17 17 17
33 32 32 31 31 31 30 30 29 28 27 26 25 24 23 23 22 22 21 20 20 19 19 18 18 18 18 18 18 18 18 18 17 17 17 17 17 17 17 17 17 17 17 17 17 17 17 17 17
32 32 32 31 31 30 30 30 29 28 27 26 25 24 24 23 23 22 21 20 20 19 19 19 18 18 18 18 18 18 18 18 17 17 17 17 17 17 17 17 17 17 17 17 17 17 17 17 17
32 33 32 32 31 31 31 30 30 28 27 26 25 25 24 23 23 22 21 21 20 19 19 19 19 19 19 18 18 18 18 18 18 17 17 17 17 18 18 17 17 17 17 17 17 17 17 17 17
33 33 32 32 32 31 31 31 30 28 27 27 26 25 24 23 23 22 21 21 20 20 19 19 19 19 19 18 18 18 18 18 18 17 17 17 17 18 17 17 17 17 17 17 17 17 17 17 17
33 33 33 32 32 32 32 31 30 28 28 27 26 26 25 24 23 22 22 21 20 20 20 19 19 19 19 19 18 18 18 18 18 18 18 17 17 18 17 17 17 17 17 17 17 17 17 17 17
33 33 33 32 32 32 32 32 31 28 28 28 27 26 25 24 24 23 22 21 21 20 20 20 20 19 19 19 18 18 18 18 18 18 18 18 18 18 17 17 17 17 17 17 17 17 17 17 17
33 33 33 32 32 32 32 32 31 29 29 28 27 26 26 25 24 23 22 21 21 21 20 20 20 20 19 19 18 18 18 18 18 18 18 18 18 17 18 17 17 17 17 17 17 17 17 17 17
32 32 32 32 32 31 32 32 32 30 29 28 28 27 26 26 25 23 22 22 21 21 21 21 20 20 20 19 19 18 18 18 18 18 18 18 18 18 17 17 17 17 17 17 17 17 17 17 17
32 32 32 32 31 31 32 31 31 31 29 28 28 27 27 26 25 24 23 22 21 21 21 21 21 20 20 19 19 18 18 18 18 18 18 18 18 18 18 17 17 17 17 17 17 17 17 17 17
32 33 32 32 31 32 32 32 32 31 30 29 28 27 27 26 25 24 23 23 22 22 21 21 21 20 20 20 19 18 18 18 18 18 18 18 18 18 18 17 17 17 17 17 17 17 17 17 17
32 32 32 32 32 32 32 32 32 32 31 30 29 28 27 26 26 25 24 23 22 22 21 21 21 20 20 20 19 19 18 18 18 18 18 18 18 18 17 17 17 17 17 17 17 17 17 17 17
31 31 31 31 32 31 31 31 31 32 31 31 30 28 27 26 26 25 24 23 22 22 21 21 21 20 20 20 19 19 18 18 18 18 18 18 18 17 17 17 17 17 17 17 17 17 17 17 17
31 31 30 30 30 31 31 31 31 31 31 30 30 28 27 26 25 24 24 23 22 22 22 21 21 20 20 20 19 19 19 18 18 18 18 18 18 18 18 17 17 17 17 17 17 17 17 17 17
31 32 30 30 30 31 30 31 32 31 30 29 28 28 27 26 25 25 24 23 22 22 22 21 21 21 20 20 20 19 19 18 18 18 18 18 18 18 18 17 17 17 17 17 17 17 17 17 17
31 31 33 32 31 31 31 31 31 31 30 29 28 27 26 26 25 24 24 23 23 22 22 21 21 21 20 20 20 19 19 19 18 18 18 18 18 18 18 18 17 17 17 17 17 17 17 17 16
31 32 31 31 29 29 30 31 31 30 30 29 28 27 26 25 25 24 24 23 23 22 22 21 21 21 20 20 20 19 19 19 19 18 18 18 18 18 18 18 17 17 17 17 17 17 17 17 17
30 30 31 31 31 30 29 31 31 30 29 29 28 27 26 25 25 24 24 23 22 22 21 21 21 20 20 20 19 19 19 19 19 19 18 18 18 18 18 18 17 17 17 17 17 17 17 16 16
31 31 30 30 29 30 30 30 30 29 29 28 28 26 25 25 24 24 23 23 22 22 21 21 20 20 20 20 20 19 19 19 19 18 18 18 18 18 18 17 17 17 17 17 17 16 16 16 16
Wind_Speed
12 10 6 4 3 11 16 13 11 10 8 9 8 7 9 10 8 8 8 9 9 10 12 12 11 12 12 12 12 13 14 14 14 14 14 14 14 14 15 15 16 16 17 17 17 17 17 18 17
9 6 4 1 8 13 15 13 13 12 10 9 9 9 10 10 9 9 9 9 9 10 11 12 12 11 12 12 12 13 13 13 13 13 13 14 14 14 15 15 16 17 17 16 16 16 17 17 17
7 5 2 7 14 15 14 12 12 11 8 7 7 8 8 8 9 7 10 11 10 10 11 13 10 11 11 12 12 12 13 12 12 12 13 13 14 14 14 15 16 16 15 15 15 15 16 16 16
4 3 2 11 17 15 13 11 9 9 9 7 8 9 9 8 6 10 12 11 10 10 10 13 10 11 11 11 11 12 12 12 12 12 12 13 13 13 13 14 15 15 15 15 15 15 15 15 15
4 1 9 15 16 12 11 9 7 8 8 8 9 12 10 8 11 13 12 10 10 10 10 13 10 10 10 10 11 11 11 11 11 12 12 12 12 12 13 14 14 14 14 14 14 14 14 14 13
1 3 10 14 14 10 9 8 8 10 11 10 11 12 9 9 11 11 11 9 9 9 10 12 11 9 9 9 10 10 10 10 11 11 11 11 12 12 12 13 13 14 14 14 13 13 13 12 12
3 7 12 13 12 10 8 7 8 9 10 9 7 10 9 10 10 10 10 9 8 8 9 9 11 10 9 9 9 9 10 10 10 11 11 11 11 11 11 11 12 13 13 13 13 12 11 11 11
2 4 11 11 11 10 8 7 7 7 9 8 5 7 10 12 11 11 10 9 8 7 7 7 7 8 8 10 9 8 9 9 10 10 10 10 11 11 10 11 11 12 12 12 11 11 10 10 9
1 4 10 10 8 8 9 8 7 6 9 7 6 8 13 16 13 12 10 9 8 7 6 6 7 6 6 7 9 8 8 8 8 9 9 7 7 9 9 11 11 10 10 10 10 9 9 9 9
1 6 10 7 7 8 8 7 8 7 8 8 10 11 15 15 13 12 10 10 9 8 7 5 5 6 6 5 7 5 6 7 5 6 6 6 5 5 8 11 9 9 9 9 9 8 8 8 8
3 6 7 6 6 7 8 8 7 7 7 8 12 15 15 14 12 10 9 9 9 9 7 7 5 4 4 4 4 4 4 5 5 5 4 4 4 5 6 7 8 8 9 7 9 8 6 5 3
3 5 4 4 6 6 7 7 6 4 7 8 12 15 15 14 12 10 9 8 8 8 8 7 6 5 3 2 3 3 3 4 4 5 4 4 2 3 3 4 5 5 5 4 4 4 4 3 3
3 4 4 5 6 6 7 6 6 6 7 10 13 14 14 13 11 9 8 8 8 8 8 7 7 6 4 3 2 3 2 3 3 3 4 3 3 3 3 3 3 3 4 5 4 3 4 3 4
3 4 5 6 6 6 6 6 6 7 10 12 14 14 13 12 11 10 9 9 9 8 8 8 8 7 6 4 3 2 3 2 2 3 3 3 2 2 3 4 4 3 3 3 3 4 4 3 2
4 5 6 5 5 5 6 6 6 9 11 13 13 12 12 12 11 10 10 9 9 9 9 9 8 8 7 5 5 3 3 3 2 3 3 3 3 2 3 2 3 3 3 4 4 4 4 4 3
6 6 5 5 5 5 6 3 7 10 12 12 12 12 12 12 11 10 10 9 9 9 9 9 8 8 8 6 4 3 3 3 2 3 3 3 3 3 3 2 2 2 3 4 3 4 3 3 3
8 7 4 6 6 5 7 1 7 10 12 12 12 12 12 12 12 11 11 10 10 10 10 10 9 8 8 7 5 4 3 3 3 2 2 3 4 4 3 2 2 3 3 3 4 3 3 3 3
6 6 5 4 5 7 7 4 7 10 12 12 12 12 12 12 13 12 11 11 10 10 10 10 10 9 8 7 5 4 4 4 4 4 3 4 4 4 4 3 3 4 3 3 2 2 2 3 3
4 5 5 3 3 6 7 6 6 10 12 12 12 12 12 12 11 11 12 12 11 11 11 11 10 10 8 6 6 5 5 4 4 4 4 5 4 5 4 3 3 3 3 3 3 3 3 3 3
7 7 6 4 3 5 6 6 6 9 12 12 12 12 12 12 11 12 12 12 13 12 12 11 11 11 10 7 5 4 4 4 4 3 3 5 5 5 5 4 3 3 3 3 4 3 3 3 3
9 8 6 4 4 6 6 7 7 8 10 10 11 11 12 12 12 12 13 13 13 13 13 11 12 11 10 8 6 5 4 4 4 4 4 4 4 4 4 4 4 3 3 3 3 3 4 3 4
10 6 5 6 7 5 6 6 5 7 9 10 11 12 12 12 12 12 13 13 13 13 12 12 11 11 10 10 8 7 6 5 4 3 3 3 4 4 4 4 3 3 3 3 4 3 3 4 4
7 3 5 7 8 7 6 8 3 6 6 7 9 11 12 12 12 12 12 12 12 12 11 11 11 11 10 10 9 8 6 5 4 3 3 3 3 3 4 4 3 3 3 3 3 2 3 4 5
6 6 5 8 10 11 7 8 5 3 3 3 6 8 9 10 11 11 11 11 10 11 11 11 11 10 10 10 9 9 7 6 4 4 4 4 3 3 4 4 4 4 3 3 4 3 4 4 5
10 10 9 10 10 10 4 7 5 1 0 2 2 5 7 9 10 11 11 11 11 11 12 12 12 11 11 11 10 9 8 7 7 6 5 4 3 3 4 4 4 4 4 4 4 4 4 4 5
14 15 13 11 11 8 7 8 4 1 1 0 1 3 5 8 9 10 11 11 11 11 12 12 12 11 12 11 10 9 9 7 6 6 5 4 4 3 3 4 4 4 4 4 4 4 4 4 4
12 14 13 12 12 10 8 6 5 3 2 2 2 3 4 6 8 9 10 11 11 11 12 12 12 11 11 11 10 9 9 8 6 6 6 5 4 4 4 4 4 4 4 4 4 3 3 3 4
8 10 9 12 12 12 11 10 7 4 3 2 2 3 4 6 7 8 8 10 10 11 11 11 12 11 11 10 10 8 9 8 7 6 6 5 5 4 4 5 4 4 3 3 3 3 3 3 3
9 10 9 10 12 12 12 7 1 2 2 1 1 2 4 5 7 7 7 8 9 10 10 10 10 11 10 10 9 9 9 8 8 7 6 6 5 5 5 4 4 4 3 3 3 3 3 3 3
9 11 12 11 10 11 12 6 4 1 0 0 1 2 3 4 5 6 6 7 8 9 9 9 9 9 9 9 9 9 9 8 8 7 6 5 5 5 5 4 4 4 3 3 3 3 3 3 4
Wind_Direction
171 178 208 237 110 70 65 64 67 76 72 69 70 65 63 48 46 84 104 108 110 111 109 108 95 95 95 97 98 100 100 100 100 102 102 102 103 104 104 104 104 103 102 104 105 105 105 106 107
169 185 227 283 64 71 66 63 68 70 87 92 81 79 75 67 67 99 117 117 120 112 111 102 98 97 96 96 95 97 98 99 99 99 99 100 102 104 105 106 106 104 103 102 103 105 106 107 107
175 225 305 62 60 65 72 69 78 86 91 89 85 67 64 78 91 105 117 129 124 111 109 103 104 101 96 94 95 95 98 98 99 100 100 99 100 103 107 106 105 104 105 105 105 106 107 108 108
207 211 82 69 70 67 75 82 91 96 87 82 93 86 78 71 90 113 126 134 125 121 115 108 107 104 101 98 97 97 97 98 100 102 102 101 101 101 104 106 106 108 108 107 107 108 109 109 108
241 66 80 74 73 75 78 83 84 82 86 91 95 98 91 81 104 120 131 133 126 119 112 113 109 107 105 103 100 100 100 100 103 104 103 103 104 103 105 106 107 108 108 108 106 108 110 109 108
241 58 70 73 77 83 88 90 88 87 97 101 103 103 95 113 122 127 129 127 119 119 119 117 118 112 109 106 102 102 101 101 102 105 104 105 105 107 106 108 110 110 110 109 108 107 107 108 110
31 63 72 75 82 87 88 92 90 98 103 101 106 105 119 130 129 132 130 127 123 123 122 127 132 127 123 111 105 104 103 101 102 104 106 106 108 109 109 111 114 113 113 113 112 110 110 111 114
353 79 80 75 76 86 107 104 90 95 98 108 110 111 134 142 142 139 136 133 127 126 124 129 126 123 130 126 116 111 107 105 106 106 108 108 115 118 120 124 118 118 119 120 119 117 118 118 121
270 76 73 70 74 97 122 119 107 106 117 110 91 95 123 140 147 146 144 143 142 141 141 134 128 127 122 122 124 132 129 123 130 124 123 138 132 127 132 111 119 126 127 127 127 126 129 135 136
3 68 70 66 81 106 128 125 130 135 129 123 115 113 129 146 155 158 155 156 156 154 150 145 137 137 131 125 129 137 139 134 136 122 133 131 119 120 117 115 127 131 133 136 134 139 158 182 154
47 66 76 86 99 116 130 132 141 141 134 141 144 145 150 156 162 161 158 159 155 156 157 156 150 146 140 139 141 134 135 132 138 133 136 126 137 138 138 140 144 150 160 158 151 175 179 165 141
81 74 80 98 117 129 129 134 140 137 104 131 146 152 158 165 167 166 161 157 156 161 162 160 153 153 154 141 139 157 158 152 146 141 162 146 145 148 139 152 152 160 161 155 168 166 156 151 156
100 88 93 111 131 131 137 137 133 132 126 135 144 157 164 168 168 166 162 162 163 168 168 164 161 158 160 165 179 155 157 156 146 145 155 165 166 157 153 154 161 180 163 170 177 176 158 170 182
93 118 119 121 126 141 147 142 151 140 145 149 157 166 171 173 173 170 175 177 175 176 174 170 176 171 170 176 180 171 165 165 162 160 160 187 178 157 176 171 178 182 179 177 180 172 177 188 184
153 149 141 136 147 153 165 163 163 150 158 163 170 174 176 179 181 184 183 185 183 183 182 180 183 181 181 185 190 184 186 176 172 163 177 204 204 183 206 185 186 181 178 182 197 187 188 191 193
197 202 182 153 172 177 220 156 144 159 171 175 178 180 184 187 191 191 190 192 189 188 187 192 192 183 186 190 199 192 190 176 187 185 184 204 212 215 222 207 200 186 197 194 192 205 197 202 207
211 219 201 162 191 200 230 213 146 170 183 183 186 188 191 191 198 196 197 196 195 194 192 193 197 191 191 188 192 193 187 197 203 200 207 206 213 221 224 218 207 210 211 214 219 193 202 206 213
214 223 215 209 187 217 231 227 166 182 194 194 192 195 197 200 200 198 199 198 197 195 195 195 195 193 191 190 192 197 199 200 205 207 209 219 220 224 229 211 213 221 216 224 222 210 217 221 221
237 240 235 222 190 227 238 240 201 189 200 200 199 200 203 206 200 196 197 198 196 195 193 194 195 189 191 194 201 201 203 205 208 215 210 218 223 218 230 235 210 226 222 228 220 219 210 218 205
221 235 234 205 190 239 248 245 218 199 205 206 204 204 205 202 197 196 197 198 199 196 195 193 194 193 196 195 203 211 216 214 212 222 213 223 223 218 216 224 225 221 227 226 228 229 239 228 216
224 241 244 233 195 217 248 235 212 198 206 207 212 212 209 204 201 197 198 200 200 198 196 196 194 192 198 196 199 201 200 218 206 208 209 217 221 216 227 219 232 228 240 228 231 229 234 244 236
227 231 242 227 231 227 238 261 205 195 199 207 211 211 209 205 203 199 197 198 200 198 195 194 192 193 193 196 205 209 215 219 215 212 197 196 210 216 215 217 225 237 243 239 241 232 247 251 249
236 206 219 226 242 252 234 264 227 179 209 209 209 211 209 204 203 200 199 197 197 194 191 189 188 191 192 198 202 211 220 217 205 199 190 209 204 215 221 220 227 230 241 245 259 257 258 253 258
173 176 197 226 241 245 245 259 256 209 229 219 197 202 207 203 199 196 194 190 190 189 188 185 183 187 191 198 203 210 214 213 208 204 200 208 206 211 213 214 222 230 235 232 238 244 243 254 264
203 217 226 228 231 241 217 247 260 286 266 261 209 191 196 196 192 190 188 185 185 186 187 185 183 186 191 198 204 206 209 209 210 214 206 214 214 208 206 216 219 230 228 231 233 234 255 253 257
216 230 238 246 245 231 192 240 245 144 118 241 212 185 182 184 183 184 184 184 185 186 187 186 185 188 191 197 201 204 206 212 213 211 218 207 217 220 210 212 220 228 230 231 229 237 240 248 260
216 229 244 251 258 260 236 230 225 197 197 180 158 155 163 171 176 180 179 183 185 186 188 189 186 189 193 194 194 198 202 210 211 205 212 215 211 211 206 211 212 216 221 232 235 242 247 248 256
242 227 229 240 242 247 242 237 241 225 231 193 165 156 152 163 171 174 177 182 183 183 183 186 187 190 193 193 196 196 197 201 205 209 210 215 212 214 210 205 207 213 217 222 228 233 232 239 248
200 212 228 238 246 250 252 239 227 255 264 234 169 153 160 168 170 174 175 180 180 177 174 179 183 188 191 193 194 195 195 197 199 202 206 208 207 203 205 204 204 204 208 212 217 232 234 239 247
226 223 221 233 237 246 262 252 103 90 16 130 139 140 148 157 165 167 169 172 175 177 177 177 179 182 186 187 189 191 192 194 196 195 196 194 193 194 193 195 197 202 201 203 216 231 239 243 253
Height
1497 1497 1498 1499 1492 1495 1505 1505 1503 1506 1510 1514 1516 1515 1517 1519 1522 1533 1537 1536 1537 1538 1538 1537 1537 1537 1538 1538 1538 1539 1539 1539 1540 1540 1540 1541 1541 1541 1541 1542 1542 1543 1543 1544 1545 1546 1547 1549 1550
1499 1499 1501 1496 1491 1505 1513 1507 1509 1512 1516 1518 1519 1520 1521 1526 1530 1534 1537 1538 1540 1541 1541 1540 1540 1540 1541 1541 1541 1542 1542 1542 1542 1543 1543 1544 1544 1544 1545 1545 1546 1546 1547 1548 1549 1549 1551 1552 1553
1501 1501 1500 1492 1498 1508 1514 1510 1513 1516 1519 1519 1521 1523 1526 1531 1535 1537 1539 1540 1542 1543 1543 1541 1542 1543 1543 1543 1544 1544 1544 1545 1545 1546 1546 1546 1547 1547 1548 1548 1549 1549 1550 1551 1552 1553 1554 1555 1556
1503 1503 1498 1495 1506 1508 1509 1512 1514 1516 1520 1521 1522 1526 1532 1536 1538 1539 1540 1542 1544 1545 1546 1544 1545 1545 1546 1546 1546 1547 1547 1547 1548 1548 1549 1549 1550 1550 1550 1551 1552 1552 1553 1554 1555 1556 1557 1558 1559
1504 1499 1495 1502 1508 1510 1511 1515 1516 1516 1520 1523 1524 1529 1535 1539 1540 1541 1542 1544 1546 1547 1548 1547 1547 1547 1548 1548 1549 1549 1550 1550 1550 1551 1551 1552 1552 1553 1554 1554 1555 1555 1556 1557 1558 1559 1560 1561 1562
1502 1494 1499 1509 1512 1511 1514 1517 1518 1520 1523 1526 1527 1530 1538 1541 1542 1543 1545 1546 1548 1549 1550 1549 1548 1549 1550 1550 1551 1551 1552 1552 1552 1553 1554 1554 1555 1555 1556 1557 1558 1558 1559 1560 1561 1562 1563 1564 1565
1501 1496 1503 1506 1511 1513 1516 1518 1518 1521 1524 1528 1529 1531 1539 1542 1544 1545 1546 1547 1549 1550 1551 1552 1552 1551 1552 1552 1553 1553 1554 1554 1555 1555 1556 1556 1557 1558 1559 1559 1560 1561 1562 1563 1564 1564 1565 1566 1567
1503 1497 1501 1504 1509 1514 1517 1520 1522 1523 1527 1531 1532 1532 1538 1543 1544 1546 1547 1549 1550 1551 1552 1553 1555 1555 1555 1555 1555 1555 1556 1556 1557 1557 1558 1558 1559 1560 1561 1562 1562 1563 1564 1565 1566 1567 1568 1569 1569
1504 1499 1505 1506 1510 1513 1517 1520 1525 1527 1529 1531 1533 1534 1538 1542 1544 1547 1548 1550 1551 1552 1553 1555 1556 1556 1557 1558 1557 1557 1557 1558 1559 1559 1559 1560 1562 1563 1563 1564 1564 1565 1566 1567 1568 1569 1570 1570 1571
1502 1501 1506 1507 1508 1511 1517 1520 1524 1526 1529 1532 1536 1538 1541 1543 1545 1547 1549 1550 1552 1553 1554 1555 1556 1557 1558 1559 1559 1559 1560 1560 1561 1561 1561 1562 1563 1564 1565 1565 1566 1567 1567 1568 1569 1570 1571 1573 1574
1503 1503 1506 1508 1511 1513 1517 1520 1523 1524 1526 1530 1535 1539 1541 1544 1546 1548 1550 1551 1553 1554 1555 1556 1557 1558 1559 1560 1560 1561 1561 1561 1562 1562 1562 1563 1564 1565 1566 1567 1567 1568 1569 1571 1571 1572 1574 1575 1576
1506 1507 1509 1510 1513 1515 1517 1520 1523 1524 1527 1531 1535 1538 1541 1544 1546 1548 1550 1552 1553 1554 1555 1556 1557 1557 1558 1560 1561 1561 1562 1562 1563 1562 1563 1564 1565 1566 1566 1567 1568 1570 1571 1571 1573 1573 1574 1575 1575
1506 1509 1511 1512 1513 1515 1518 1520 1523 1526 1530 1533 1536 1539 1542 1544 1546 1549 1550 1552 1553 1554 1555 1556 1557 1557 1558 1559 1560 1562 1562 1563 1563 1563 1563 1564 1565 1566 1567 1567 1568 1570 1571 1572 1572 1573 1574 1575 1575
1509 1509 1511 1512 1514 1517 1518 1521 1523 1527 1530 1534 1536 1539 1542 1544 1546 1548 1550 1551 1553 1554 1555 1556 1556 1557 1558 1559 1560 1561 1563 1562 1564 1564 1564 1564 1566 1566 1567 1567 1568 1569 1570 1572 1572 1573 1573 1574 1575
1509 1509 1510 1512 1514 1516 1517 1519 1521 1526 1530 1533 1536 1538 1541 1543 1545 1547 1549 1551 1552 1553 1554 1555 1556 1557 1558 1559 1560 1561 1562 1563 1564 1564 1564 1564 1565 1566 1566 1567 1568 1569 1570 1570 1571 1572 1573 1573 1574
1506 1506 1510 1511 1513 1515 1516 1518 1519 1525 1528 1531 1534 1537 1540 1542 1544 1546 1548 1550 1551 1553 1553 1554 1556 1557 1557 1559 1559 1561 1562 1563 1563 1564 1564 1564 1565 1565 1566 1567 1568 1568 1569 1569 1570 1571 1571 1572 1572
1505 1507 1508 1510 1511 1512 1513 1514 1518 1523 1526 1528 1532 1535 1538 1540 1543 1545 1547 1548 1550 1551 1552 1553 1555 1556 1557 1558 1559 1560 1561 1562 1562 1562 1563 1563 1564 1564 1565 1566 1566 1567 1568 1568 1569 1570 1570 1570 1571
1507 1505 1507 1509 1508 1509 1510 1510 1515 1521 1523 1525 1529 1532 1535 1538 1540 1543 1545 1546 1548 1549 1550 1552 1553 1554 1556 1557 1558 1559 1560 1560 1561 1561 1561 1562 1562 1563 1564 1565 1565 1566 1567 1567 1567 1568 1568 1569 1569
1502 1505 1507 1506 1506 1508 1508 1509 1510 1517 1520 1523 1526 1529 1532 1535 1538 1540 1542 1544 1546 1547 1548 1550 1551 1552 1554 1556 1557 1558 1559 1559 1560 1560 1560 1560 1561 1562 1562 1564 1564 1564 1565 1566 1566 1567 1567 1567 1567
1504 1506 1506 1506 1507 1508 1507 1507 1507 1512 1516 1519 1522 1526 1529 1532 1535 1537 1539 1541 1543 1544 1546 1547 1549 1551 1552 1554 1555 1556 1557 1558 1558 1559 1558 1559 1559 1560 1562 1562 1563 1563 1564 1564 1564 1564 1565 1565 1566
1503 1505 1504 1506 1507 1507 1507 1508 1506 1508 1513 1517 1520 1522 1525 1528 1531 1534 1536 1538 1540 1542 1543 1545 1547 1548 1550 1552 1554 1555 1555 1556 1557 1557 1557 1557 1558 1559 1559 1560 1561 1561 1562 1563 1562 1563 1563 1564 1564
1505 1499 1502 1506 1509 1507 1508 1513 1503 1503 1508 1512 1515 1518 1521 1524 1528 1530 1533 1535 1537 1539 1541 1543 1545 1546 1548 1549 1551 1553 1554 1555 1555 1555 1556 1556 1556 1557 1558 1559 1559 1559 1560 1561 1561 1561 1561 1562 1562
1499 1499 1502 1504 1506 1508 1506 1510 1502 1500 1504 1506 1510 1513 1517 1520 1523 1526 1529 1532 1534 1537 1539 1540 1542 1544 1545 1547 1549 1550 1552 1553 1554 1554 1554 1554 1555 1556 1556 1557 1557 1557 1558 1558 1559 1559 1559 1560 1560
1500 1503 1504 1503 1503 1518 1508 1512 1509 1498 1502 1502 1505 1510 1513 1517 1520 1523 1526 1529 1531 1534 1536 1538 1539 1541 1543 1545 1546 1548 1549 1550 1552 1552 1553 1553 1554 1554 1554 1555 1555 1556 1556 1556 1556 1556 1557 1557 1557
1500 1506 1516 1519 1518 1515 1504 1510 1506 1497 1499 1501 1503 1507 1510 1513 1516 1520 1523 1525 1528 1530 1533 1535 1536 1538 1540 1542 1544 1545 1547 1548 1549 1550 1551 1552 1553 1553 1553 1553 1553 1554 1554 1554 1554 1554 1554 1554 1554
1496 1498 1514 1523 1519 1508 1509 1509 1499 1496 1500 1503 1504 1506 1508 1510 1513 1516 1519 1522 1525 1527 1530 1532 1534 1535 1537 1539 1541 1543 1544 1546 1547 1547 1549 1549 1550 1551 1551 1551 1551 1552 1552 1552 1552 1553 1552 1552 1552
1494 1494 1488 1499 1505 1510 1503 1499 1496 1496 1498 1501 1502 1504 1506 1508 1511 1514 1517 1519 1522 1524 1526 1529 1530 1532 1534 1536 1538 1539 1541 1543 1544 1545 1546 1547 1547 1549 1549 1549 1549 1550 1550 1550 1550 1551 1550 1550 1550
1489 1488 1494 1500 1517 1521 1509 1504 1499 1496 1496 1498 1500 1502 1505 1507 1509 1512 1514 1517 1519 1521 1523 1526 1528 1530 1532 1533 1535 1537 1538 1539 1541 1542 1543 1544 1545 1546 1546 1547 1547 1548 1548 1548 1548 1548 1548 1548 1547
1494 1494 1493 1495 1497 1512 1516 1505 1489 1493 1495 1496 1499 1502 1504 1506 1508 1510 1512 1515 1517 1519 1521 1522 1525 1527 1529 1530 1532 1534 1535 1537 1538 1539 1540 1541 1542 1543 1543 1544 1545 1545 1546 1546 1546 1546 1546 1545 1545
1486 1488 1492 1502 1505 1501 1504 1501 1490 1493 1494 1497 1499 1502 1504 1505 1507 1509 1511 1513 1515 1517 1519 1520 1522 1524 1526 1528 1529 1531 1532 1534 1535 1536 1537 1538 1539 1540 1541 1541 1542 1543 1543 1544 1544 1543 1543 1543 1542